Weather in Lisbon

Portugal     38°42′58″N   9°08′29″W
temp.,
°C
wind,
m/s
gust,
m/s
humid.,
%
clouds,
%
prec.,
mm/h
press.,
hPa
HPBL,
m
24 july, sat
sat2401:00+18nnw49846 0.0 1016478
04:00+17nnw38866 0.0 1016391
07:00+16nnw398710 0.0 1016411
10:00+21nnw57601 0.0 1017755
13:00+25nw66455 0.0 10161079
16:00+24nw78490 0.0 1016907
19:00+22nnw69590 0.0 1016692
22:00+19nnw510775 0.0 1017469
25 july, sun
sun2501:00+18nnw498090 0.0 1016420
04:00+18nw39842 0.0 1015377
07:00+18nw289022 0.0 1016310
10:00+22wnw367224 0.0 1016692
13:00+25w566641 0.1 1016980
16:00+25wnw566138 0.1 10151120
19:00+23nw68714 0.1 1015723
22:00+20nw5108757 0.0 1016547
26 july, mon
mon2601:00+20nnw498985 0.0 1015610
04:00+18nnw310825 0.0 1015446
07:00+18nnw411794 0.0 1016465
10:00+22nnw711570 0.0 1016669
13:00+26nnw89430 0.0 10161013
16:00+26nnw89420 0.0 1016943
19:00+23nnw811500 0.0 1015716
22:00+19nnw614790 0.0 1017579
27 july, tue
tue2701:00+18nnw513845 0.0 1016506
04:00+18nnw513866 0.0 1015508
07:00+17nnw514859 0.0 1015488
10:00+22n610590 0.0 1015611
13:00+27nnw68410 0.0 1015917
16:00+27nnw810420 0.0 1014842
19:00+23nnw813560 0.0 1014607
22:00+19n716750 0.0 1016483
28 july, wed
wed2801:00+18n717750 0.0 1016497
04:00+18n616790 0.0 1015505
07:00+17n616810 0.0 1015509
10:00+23n713500 0.0 1015579
13:00+27n79360 0.0 1015774
16:00+26nnw911400 0.0 1014715
19:00+23nnw812510 0.0 1014592
22:00+19n616740 0.0 1015496